RYR879T ELLX-LPPR

Flight info

Callsign RYR879T
Flight time 2h 10m
Altitude 33000
Route RAPOR DCT GIMER DCT BSN DCT ESTOC UT300 PON UN872 TERPO/N0439F350 UN872 ERIGA UZ218 FUJTI DCT ATLEN DCT INSID T326 ASPOR
Aircraft B738/M-SADFGIJ1LRWYZ/SB1

Departure

Time 2026-05-05 18:12
Airport Luxembourg-Findel International Airport (ELLX)

Arrival

Time 2026-05-05 20:22
Airport Francisco de Sá Carneiro Airport (LPPR)
Time Latitude Longitude Altitude Speed Heading
2026-05-05 17:42 49.63261 6.21755 1229 ft 0 kts 60°
2026-05-05 18:04 49.63264 6.21763 1229 ft 3 kts 60°
2026-05-05 18:04 49.63268 6.21831 1229 ft 10 kts 120°
2026-05-05 18:05 49.63200 6.21896 1227 ft 13 kts 160°
2026-05-05 18:05 49.63132 6.21826 1225 ft 15 kts 245°
2026-05-05 18:05 49.63082 6.21663 1224 ft 18 kts 244°
2026-05-05 18:05 49.63028 6.21488 1226 ft 20 kts 244°
2026-05-05 18:06 49.62960 6.21266 1231 ft 23 kts 245°
2026-05-05 18:06 49.62914 6.21120 1232 ft 23 kts 244°
2026-05-05 18:06 49.62825 6.20834 1240 ft 22 kts 244°
2026-05-05 18:06 49.62728 6.20663 1242 ft 21 kts 218°
2026-05-05 18:07 49.62628 6.20522 1248 ft 10 kts 228°
2026-05-05 18:07 49.62573 6.20462 1233 ft 11 kts 185°
2026-05-05 18:07 49.62528 6.20486 1232 ft 0 kts 149°
2026-05-05 18:10 49.62525 6.20489 1232 ft 2 kts 149°
2026-05-05 18:10 49.62496 6.20516 1232 ft 8 kts 149°
2026-05-05 18:11 49.62441 6.20580 1231 ft 9 kts 105°
2026-05-05 18:11 49.62495 6.20750 1234 ft 42 kts 60°
2026-05-05 18:11 49.62756 6.21453 1224 ft 108 kts 60°
2026-05-05 18:11 49.63228 6.22725 1221 ft 162 kts 61°
2026-05-05 18:12 49.63813 6.24263 1771 ft 169 kts 60°
2026-05-05 18:12 49.64440 6.25873 2350 ft 182 kts 61°
2026-05-05 18:12 49.65079 6.27611 2972 ft 192 kts 62°
2026-05-05 18:12 49.65783 6.29545 3221 ft 219 kts 62°
2026-05-05 18:13 49.66554 6.31649 3680 ft 230 kts 62°
2026-05-05 18:13 49.67357 6.33824 4311 ft 235 kts 62°
2026-05-05 18:13 49.68171 6.36013 5058 ft 237 kts 58°
2026-05-05 18:13 49.69408 6.37821 5366 ft 261 kts 23°
2026-05-05 18:14 49.71243 6.38242 5732 ft 276 kts 350°
2026-05-05 18:14 49.73027 6.37174 6385 ft 278 kts 321°
2026-05-05 18:14 49.74272 6.34952 7102 ft 275 kts 292°
2026-05-05 18:14 49.74604 6.32104 7842 ft 272 kts 263°
2026-05-05 18:15 49.74266 6.29222 8558 ft 274 kts 255°
2026-05-05 18:15 49.73817 6.26342 9330 ft 277 kts 254°
2026-05-05 18:15 49.73378 6.23428 10043 ft 280 kts 255°
2026-05-05 18:15 49.72920 6.20487 10724 ft 282 kts 249°
2026-05-05 18:16 49.72005 6.17737 11054 ft 299 kts 237°
2026-05-05 18:16 49.70862 6.14969 11243 ft 320 kts 236°
2026-05-05 18:16 49.69615 6.11970 11699 ft 332 kts 236°
2026-05-05 18:16 49.68370 6.08947 12374 ft 336 kts 237°
2026-05-05 18:17 49.67137 6.05923 13111 ft 338 kts 237°
2026-05-05 18:17 49.65865 6.02784 13832 ft 342 kts 237°
2026-05-05 18:17 49.64618 5.99694 14477 ft 346 kts 237°
2026-05-05 18:17 49.63338 5.96525 15153 ft 350 kts 237°
2026-05-05 18:18 49.62043 5.93324 15832 ft 353 kts 237°
2026-05-05 18:18 49.60916 5.89936 16461 ft 360 kts 252°
2026-05-05 18:18 49.60557 5.86091 17131 ft 366 kts 268°
2026-05-05 18:18 49.60609 5.82153 17845 ft 369 kts 270°
2026-05-05 18:19 49.60679 5.78179 18453 ft 373 kts 269°
2026-05-05 18:19 49.60731 5.74161 18984 ft 378 kts 269°
2026-05-05 18:19 49.60766 5.70092 19545 ft 381 kts 269°
2026-05-05 18:19 49.60792 5.65983 20112 ft 385 kts 269°
2026-05-05 18:20 49.60815 5.61837 20665 ft 389 kts 269°
2026-05-05 18:20 49.60829 5.57648 21191 ft 393 kts 267°
2026-05-05 18:20 49.60687 5.53425 21696 ft 396 kts 264°
2026-05-05 18:20 49.60464 5.49169 22214 ft 400 kts 263°
2026-05-05 18:21 49.60244 5.44869 22721 ft 404 kts 264°
2026-05-05 18:21 49.60038 5.40524 23212 ft 408 kts 264°
2026-05-05 18:21 49.59833 5.36133 23625 ft 413 kts 264°
2026-05-05 18:21 49.59628 5.31691 24006 ft 417 kts 264°
2026-05-05 18:22 49.59419 5.27213 24420 ft 420 kts 264°
2026-05-05 18:22 49.59205 5.22701 24824 ft 424 kts 264°
2026-05-05 18:22 49.58793 5.18197 25198 ft 426 kts 255°
2026-05-05 18:22 49.58055 5.13768 25585 ft 428 kts 252°
2026-05-05 18:23 49.57220 5.09348 25968 ft 431 kts 251°
2026-05-05 18:23 49.56362 5.04913 26332 ft 435 kts 251°
2026-05-05 18:23 49.55505 5.00429 26696 ft 438 kts 252°
2026-05-05 18:23 49.54660 4.95903 27060 ft 441 kts 252°
2026-05-05 18:24 49.53824 4.91338 27426 ft 445 kts 252°
2026-05-05 18:24 49.52992 4.86736 27766 ft 448 kts 252°
2026-05-05 18:24 49.52159 4.82102 28135 ft 450 kts 252°
2026-05-05 18:24 49.51325 4.77455 28597 ft 450 kts 252°
2026-05-05 18:25 49.50492 4.72820 29123 ft 449 kts 252°
2026-05-05 18:25 49.49941 4.69757 29472 ft 448 kts 252°
2026-05-05 18:25 49.48836 4.63648 30038 ft 448 kts 252°
2026-05-05 18:25 49.47999 4.59037 30425 ft 447 kts 252°
2026-05-05 18:26 49.47163 4.54444 30895 ft 445 kts 252°
2026-05-05 18:26 49.46330 4.49880 31375 ft 442 kts 252°
2026-05-05 18:26 49.45499 4.45343 31815 ft 441 kts 252°
2026-05-05 18:26 49.44669 4.40819 32244 ft 439 kts 251°
2026-05-05 18:27 49.43838 4.36304 32660 ft 437 kts 252°
2026-05-05 18:27 49.43008 4.31804 32792 ft 442 kts 252°
2026-05-05 18:27 49.42165 4.27246 32796 ft 444 kts 252°
2026-05-05 18:28 49.39649 4.13691 32796 ft 435 kts 251°
2026-05-05 18:28 49.37976 4.04738 32802 ft 437 kts 251°
2026-05-05 18:29 49.36290 3.95758 32801 ft 439 kts 251°
2026-05-05 18:29 49.34579 3.86764 32800 ft 440 kts 251°
2026-05-05 18:30 49.32856 3.77764 32800 ft 440 kts 251°
2026-05-05 18:30 49.31115 3.68701 32876 ft 448 kts 251°
2026-05-05 18:31 49.30231 3.64115 33060 ft 451 kts 251°
2026-05-05 18:31 49.29343 3.59513 33415 ft 450 kts 251°
2026-05-05 18:31 49.28458 3.54935 33868 ft 447 kts 251°
2026-05-05 18:31 49.27575 3.50379 34164 ft 446 kts 251°
2026-05-05 18:32 49.26690 3.45826 34417 ft 446 kts 251°
2026-05-05 18:32 49.25804 3.41279 34699 ft 445 kts 251°
2026-05-05 18:32 49.24916 3.36731 34814 ft 448 kts 251°
2026-05-05 18:32 49.24019 3.32153 34815 ft 450 kts 251°
2026-05-05 18:33 49.22224 3.23019 34801 ft 445 kts 251°
2026-05-05 18:33 49.20447 3.14004 34820 ft 442 kts 251°
2026-05-05 18:34 49.18707 3.04970 34809 ft 444 kts 255°
2026-05-05 18:34 49.17816 2.95609 34818 ft 446 kts 261°
2026-05-05 18:35 49.17094 2.86190 34821 ft 447 kts 261°
2026-05-05 18:35 49.16315 2.76769 34822 ft 448 kts 261°
2026-05-05 18:36 49.15492 2.67330 34824 ft 448 kts 260°
2026-05-05 18:36 49.14655 2.57889 34832 ft 449 kts 260°
2026-05-05 18:37 49.13817 2.48488 34829 ft 450 kts 260°
2026-05-05 18:37 49.12965 2.39013 34833 ft 451 kts 260°
2026-05-05 18:38 49.12078 2.29532 34828 ft 451 kts 259°
2026-05-05 18:38 49.11175 2.20046 34834 ft 452 kts 259°
2026-05-05 18:39 49.10270 2.10566 34829 ft 451 kts 259°
2026-05-05 18:39 49.08975 2.01245 34819 ft 447 kts 246°
2026-05-05 18:40 49.06430 1.92653 34836 ft 444 kts 242°
2026-05-05 18:40 49.03784 1.84122 34832 ft 445 kts 243°
2026-05-05 18:41 49.01169 1.75582 34836 ft 444 kts 243°
2026-05-05 18:41 48.98578 1.67046 34836 ft 444 kts 243°
2026-05-05 18:42 48.95990 1.58522 34833 ft 443 kts 243°
2026-05-05 18:42 48.93398 1.50018 34837 ft 443 kts 243°
2026-05-05 18:43 48.90802 1.41532 34835 ft 442 kts 243°
2026-05-05 18:43 48.88219 1.33120 34845 ft 442 kts 243°
2026-05-05 18:44 48.85617 1.24675 34837 ft 441 kts 243°
2026-05-05 18:44 48.83009 1.16239 34854 ft 441 kts 243°
2026-05-05 18:45 48.80394 1.07809 34860 ft 442 kts 243°
2026-05-05 18:45 48.77770 0.99373 34866 ft 443 kts 243°
2026-05-05 18:46 48.75134 0.90928 34856 ft 443 kts 243°
2026-05-05 18:46 48.72186 0.82756 34880 ft 441 kts 236°
2026-05-05 18:47 48.68923 0.74882 34856 ft 442 kts 236°
2026-05-05 18:47 48.65655 0.67004 34880 ft 442 kts 236°
2026-05-05 18:48 48.62414 0.59087 34862 ft 443 kts 236°
2026-05-05 18:48 48.59187 0.51175 34876 ft 443 kts 236°
2026-05-05 18:49 48.56472 0.44533 34871 ft 443 kts 236°
2026-05-05 18:49 48.53228 0.36619 34869 ft 443 kts 236°
2026-05-05 18:50 48.50004 0.28778 34881 ft 443 kts 236°
2026-05-05 18:50 48.46756 0.20903 34883 ft 442 kts 236°
2026-05-05 18:51 48.43490 0.13007 34896 ft 441 kts 236°
2026-05-05 18:51 48.40241 0.05175 34892 ft 441 kts 236°
2026-05-05 18:52 48.36994 -0.02630 34889 ft 440 kts 236°
2026-05-05 18:52 48.33490 -0.10158 34900 ft 439 kts 231°
2026-05-05 18:53 48.29782 -0.17436 34899 ft 439 kts 231°
2026-05-05 18:53 48.26107 -0.24768 34896 ft 439 kts 231°
2026-05-05 18:54 48.22416 -0.32069 34900 ft 439 kts 231°
2026-05-05 18:54 48.18693 -0.39337 34890 ft 440 kts 231°
2026-05-05 18:55 48.14987 -0.46562 34890 ft 440 kts 231°
2026-05-05 18:55 48.11252 -0.53834 34892 ft 441 kts 231°
2026-05-05 18:56 48.07516 -0.61095 34884 ft 441 kts 231°
2026-05-05 18:56 48.03766 -0.68364 34885 ft 442 kts 230°
2026-05-05 18:57 48.00009 -0.75627 34895 ft 442 kts 230°
2026-05-05 18:57 47.96244 -0.82885 34887 ft 442 kts 230°
2026-05-05 18:58 47.92472 -0.90137 34884 ft 442 kts 230°
2026-05-05 18:58 47.88696 -0.97379 34893 ft 442 kts 231°
2026-05-05 18:59 47.84915 -1.04611 34888 ft 442 kts 230°
2026-05-05 18:59 47.81130 -1.11831 34885 ft 442 kts 230°
2026-05-05 19:00 47.77343 -1.19037 34893 ft 442 kts 230°
2026-05-05 19:00 47.73556 -1.26222 34887 ft 442 kts 230°
2026-05-05 19:01 47.69762 -1.33402 34886 ft 442 kts 230°
2026-05-05 19:01 47.65966 -1.40569 34886 ft 442 kts 230°
2026-05-05 19:02 47.62193 -1.47677 34888 ft 441 kts 230°
2026-05-05 19:02 47.58322 -1.54733 34891 ft 441 kts 227°
2026-05-05 19:03 47.54210 -1.61455 34887 ft 440 kts 225°
2026-05-05 19:03 47.50075 -1.68138 34889 ft 440 kts 226°
2026-05-05 19:04 47.45965 -1.74846 34895 ft 440 kts 227°
2026-05-05 19:04 47.41863 -1.81555 34886 ft 440 kts 226°
2026-05-05 19:05 47.37758 -1.88248 34904 ft 440 kts 226°
2026-05-05 19:05 47.33344 -1.94430 34909 ft 437 kts 213°
2026-05-05 19:06 47.28170 -1.99087 34910 ft 436 kts 209°
2026-05-05 19:06 47.22950 -2.03633 34912 ft 436 kts 209°
2026-05-05 19:07 47.17746 -2.08223 34901 ft 436 kts 210°
2026-05-05 19:07 47.12544 -2.12842 34908 ft 437 kts 211°
2026-05-05 19:08 47.07330 -2.17475 34911 ft 439 kts 211°
2026-05-05 19:08 47.02106 -2.22102 34908 ft 440 kts 210°
2026-05-05 19:09 46.96857 -2.26739 34909 ft 441 kts 210°
2026-05-05 19:09 46.91592 -2.31381 34918 ft 442 kts 211°
2026-05-05 19:10 46.86313 -2.36024 34910 ft 443 kts 210°
2026-05-05 19:10 46.81027 -2.40664 34915 ft 443 kts 211°
2026-05-05 19:11 46.75739 -2.45301 34908 ft 443 kts 210°
2026-05-05 19:11 46.70450 -2.49929 34910 ft 443 kts 210°
2026-05-05 19:12 46.65162 -2.54547 34920 ft 443 kts 210°
2026-05-05 19:12 46.59876 -2.59149 34931 ft 443 kts 210°
2026-05-05 19:13 46.54622 -2.63715 34920 ft 443 kts 210°
2026-05-05 19:13 46.49336 -2.68299 34922 ft 442 kts 210°
2026-05-05 19:14 46.44051 -2.72872 34922 ft 442 kts 210°
2026-05-05 19:14 46.38769 -2.77431 34930 ft 442 kts 210°
2026-05-05 19:15 46.33491 -2.81978 34913 ft 442 kts 210°
2026-05-05 19:15 46.28210 -2.86517 34930 ft 442 kts 210°
2026-05-05 19:16 46.23238 -2.91726 34939 ft 442 kts 220°
2026-05-05 19:16 46.18574 -2.97532 34934 ft 444 kts 220°
2026-05-05 19:17 46.13898 -3.03353 34936 ft 444 kts 220°
2026-05-05 19:17 46.09186 -3.09133 34944 ft 445 kts 220°
2026-05-05 19:18 46.04451 -3.14886 34935 ft 445 kts 220°
2026-05-05 19:18 45.99710 -3.20623 34930 ft 445 kts 220°
2026-05-05 19:19 45.94969 -3.26347 34935 ft 445 kts 220°
2026-05-05 19:19 45.90231 -3.32056 34951 ft 444 kts 220°
2026-05-05 19:20 45.85497 -3.37747 34941 ft 443 kts 220°
2026-05-05 19:20 45.80770 -3.43418 34937 ft 443 kts 220°
2026-05-05 19:21 45.76048 -3.49069 34947 ft 442 kts 220°
2026-05-05 19:21 45.71329 -3.54704 34951 ft 441 kts 221°
2026-05-05 19:22 45.66613 -3.60323 34956 ft 441 kts 220°
2026-05-05 19:22 45.61896 -3.65931 34952 ft 441 kts 220°
2026-05-05 19:23 45.57175 -3.71530 34962 ft 441 kts 220°
2026-05-05 19:23 45.52448 -3.77123 34969 ft 441 kts 220°
2026-05-05 19:24 45.47715 -3.82710 34964 ft 442 kts 220°
2026-05-05 19:24 45.42977 -3.88293 34969 ft 442 kts 221°
2026-05-05 19:25 45.38237 -3.93868 34968 ft 443 kts 220°
2026-05-05 19:25 45.33513 -3.99403 34972 ft 443 kts 220°
2026-05-05 19:26 45.28747 -4.04981 34975 ft 444 kts 220°
2026-05-05 19:26 45.23984 -4.10544 34974 ft 444 kts 221°
2026-05-05 19:27 45.19211 -4.16103 34986 ft 444 kts 220°
2026-05-05 19:27 45.14438 -4.21654 34984 ft 444 kts 220°
2026-05-05 19:28 45.09665 -4.27186 34979 ft 443 kts 220°
2026-05-05 19:28 45.04899 -4.32700 34983 ft 442 kts 221°
2026-05-05 19:29 45.00140 -4.38194 34988 ft 441 kts 221°
2026-05-05 19:29 44.95389 -4.43665 34985 ft 440 kts 220°
2026-05-05 19:30 44.90647 -4.49118 34998 ft 439 kts 221°
2026-05-05 19:30 44.85913 -4.54546 34992 ft 438 kts 220°
2026-05-05 19:31 44.81193 -4.59949 34989 ft 437 kts 220°
2026-05-05 19:31 44.76475 -4.65337 34994 ft 436 kts 222°
2026-05-05 19:32 44.71761 -4.70708 34997 ft 436 kts 221°
2026-05-05 19:32 44.67080 -4.76029 35000 ft 435 kts 220°
2026-05-05 19:33 44.62368 -4.81377 34999 ft 436 kts 220°
2026-05-05 19:33 44.57648 -4.86726 35001 ft 436 kts 220°
2026-05-05 19:34 44.52926 -4.92060 35008 ft 436 kts 221°
2026-05-05 19:35 44.46522 -4.98956 35008 ft 437 kts 218°
2026-05-05 19:35 44.41563 -5.03878 35012 ft 437 kts 217°
2026-05-05 19:36 44.36598 -5.08790 35011 ft 437 kts 217°
2026-05-05 19:36 44.31646 -5.13722 35009 ft 437 kts 217°
2026-05-05 19:37 44.26702 -5.18657 35013 ft 437 kts 218°
2026-05-05 19:37 44.21761 -5.23584 35018 ft 436 kts 218°
2026-05-05 19:38 44.16824 -5.28498 35025 ft 436 kts 218°
2026-05-05 19:38 44.11890 -5.33397 35017 ft 435 kts 218°
2026-05-05 19:39 44.06964 -5.38276 35019 ft 435 kts 218°
2026-05-05 19:39 44.02037 -5.43148 35030 ft 435 kts 218°
2026-05-05 19:40 43.97100 -5.48019 35035 ft 435 kts 218°
2026-05-05 19:40 43.92191 -5.52853 35033 ft 435 kts 218°
2026-05-05 19:41 43.87250 -5.57707 35033 ft 435 kts 218°
2026-05-05 19:41 43.82307 -5.62553 35041 ft 435 kts 218°
2026-05-05 19:42 43.77362 -5.67392 35042 ft 435 kts 218°
2026-05-05 19:42 43.72422 -5.72216 35026 ft 435 kts 219°
2026-05-05 19:43 43.67476 -5.77035 35038 ft 435 kts 219°
2026-05-05 19:43 43.62527 -5.81848 35043 ft 434 kts 219°
2026-05-05 19:44 43.57584 -5.86644 35050 ft 434 kts 219°
2026-05-05 19:44 43.52638 -5.91435 35054 ft 434 kts 219°
2026-05-05 19:45 43.47688 -5.96219 35053 ft 435 kts 219°
2026-05-05 19:45 43.42741 -6.00989 35054 ft 433 kts 219°
2026-05-05 19:46 43.37804 -6.05741 35059 ft 433 kts 219°
2026-05-05 19:46 43.32869 -6.10482 35045 ft 432 kts 219°
2026-05-05 19:47 43.27946 -6.15202 35059 ft 431 kts 219°
2026-05-05 19:47 43.23030 -6.19904 35061 ft 430 kts 220°
2026-05-05 19:48 43.18150 -6.24564 35072 ft 430 kts 220°
2026-05-05 19:48 43.13238 -6.29246 35056 ft 430 kts 220°
2026-05-05 19:49 43.08328 -6.33916 35067 ft 430 kts 220°
2026-05-05 19:49 43.03416 -6.38578 35051 ft 429 kts 220°
2026-05-05 19:50 42.98526 -6.43208 35060 ft 427 kts 220°
2026-05-05 19:50 42.93640 -6.47828 35046 ft 426 kts 220°
2026-05-05 19:51 42.88779 -6.52416 35044 ft 425 kts 220°
2026-05-05 19:51 42.83927 -6.56985 35060 ft 423 kts 220°
2026-05-05 19:52 42.79091 -6.61530 35071 ft 422 kts 220°
2026-05-05 19:52 42.74262 -6.66060 35057 ft 421 kts 220°
2026-05-05 19:53 42.69441 -6.70575 35066 ft 420 kts 220°
2026-05-05 19:53 42.64621 -6.75080 35052 ft 420 kts 220°
2026-05-05 19:54 42.59836 -6.79543 35073 ft 420 kts 220°
2026-05-05 19:54 42.54990 -6.84054 35066 ft 420 kts 220°
2026-05-05 19:55 42.50210 -6.88497 35066 ft 419 kts 219°
2026-05-05 19:55 42.45392 -6.92966 35066 ft 420 kts 219°
2026-05-05 19:55 42.42968 -6.95212 34765 ft 425 kts 219°
2026-05-05 19:56 42.40527 -6.97472 34310 ft 425 kts 220°
2026-05-05 19:56 42.38092 -6.99722 33703 ft 424 kts 219°
2026-05-05 19:56 42.35659 -7.01967 33123 ft 423 kts 220°
2026-05-05 19:56 42.33229 -7.04211 32532 ft 423 kts 220°
2026-05-05 19:57 42.30801 -7.06450 31911 ft 423 kts 220°
2026-05-05 19:57 42.28370 -7.08688 31311 ft 423 kts 220°
2026-05-05 19:57 42.26017 -7.11051 30690 ft 421 kts 225°
2026-05-05 19:57 42.23759 -7.13540 30215 ft 417 kts 226°
2026-05-05 19:58 42.21541 -7.16039 29675 ft 414 kts 226°
2026-05-05 19:58 42.19351 -7.18519 29190 ft 409 kts 226°
2026-05-05 19:58 42.17186 -7.20965 28713 ft 403 kts 226°
2026-05-05 19:58 42.15043 -7.23374 28235 ft 399 kts 226°
2026-05-05 19:59 42.12922 -7.25750 27788 ft 395 kts 226°
2026-05-05 19:59 42.10818 -7.28099 27337 ft 392 kts 226°
2026-05-05 19:59 42.08724 -7.30433 26875 ft 389 kts 226°
2026-05-05 19:59 42.06649 -7.32740 26439 ft 386 kts 226°
2026-05-05 20:00 42.04582 -7.35035 25989 ft 383 kts 226°
2026-05-05 20:00 42.02531 -7.37310 25559 ft 381 kts 226°
2026-05-05 20:00 42.00489 -7.39573 25118 ft 380 kts 226°
2026-05-05 20:00 41.98455 -7.41825 24676 ft 378 kts 226°
2026-05-05 20:01 41.96430 -7.44064 24249 ft 376 kts 226°
2026-05-05 20:01 41.94413 -7.46294 23796 ft 374 kts 226°
2026-05-05 20:01 41.92408 -7.48508 23329 ft 372 kts 226°
2026-05-05 20:01 41.90411 -7.50711 22853 ft 370 kts 225°
2026-05-05 20:02 41.88426 -7.52899 22393 ft 368 kts 225°
2026-05-05 20:02 41.86461 -7.55063 21997 ft 365 kts 225°
2026-05-05 20:02 41.84504 -7.57216 21545 ft 363 kts 225°
2026-05-05 20:02 41.82558 -7.59356 21120 ft 361 kts 225°
2026-05-05 20:03 41.80622 -7.61483 20697 ft 359 kts 225°
2026-05-05 20:03 41.78695 -7.63598 20292 ft 357 kts 225°
2026-05-05 20:03 41.76775 -7.65704 19887 ft 355 kts 225°
2026-05-05 20:03 41.74879 -7.67783 19488 ft 354 kts 224°
2026-05-05 20:04 41.72973 -7.69870 19083 ft 353 kts 224°
2026-05-05 20:04 41.71074 -7.71949 18678 ft 352 kts 225°
2026-05-05 20:04 41.69184 -7.74015 18266 ft 351 kts 225°
2026-05-05 20:04 41.67295 -7.76080 17808 ft 350 kts 224°
2026-05-05 20:05 41.65414 -7.78134 17380 ft 348 kts 224°
2026-05-05 20:05 41.63536 -7.80182 16963 ft 347 kts 224°
2026-05-05 20:05 41.61702 -7.82181 16566 ft 344 kts 224°
2026-05-05 20:05 41.59851 -7.84196 16157 ft 342 kts 224°
2026-05-05 20:06 41.58012 -7.86197 15787 ft 340 kts 224°
2026-05-05 20:06 41.56183 -7.88185 15379 ft 338 kts 223°
2026-05-05 20:06 41.54366 -7.90159 15004 ft 336 kts 223°
2026-05-05 20:06 41.52561 -7.92120 14638 ft 334 kts 223°
2026-05-05 20:07 41.50764 -7.94071 14253 ft 332 kts 223°
2026-05-05 20:07 41.48973 -7.96013 13866 ft 331 kts 222°
2026-05-05 20:07 41.47190 -7.97946 13465 ft 330 kts 222°
2026-05-05 20:07 41.45414 -7.99869 13038 ft 329 kts 222°
2026-05-05 20:08 41.43647 -8.01780 12661 ft 326 kts 222°
2026-05-05 20:08 41.41890 -8.03682 12289 ft 324 kts 222°
2026-05-05 20:08 41.40139 -8.05573 11892 ft 323 kts 222°
2026-05-05 20:08 41.38405 -8.07444 11516 ft 321 kts 222°
2026-05-05 20:09 41.36663 -8.09325 11077 ft 322 kts 222°
2026-05-05 20:09 41.34924 -8.11199 10699 ft 322 kts 222°
2026-05-05 20:09 41.33199 -8.13057 10490 ft 314 kts 222°
2026-05-05 20:09 41.31521 -8.14861 10343 ft 306 kts 222°
2026-05-05 20:10 41.29884 -8.16620 10211 ft 298 kts 222°
2026-05-05 20:10 41.28293 -8.18330 10068 ft 290 kts 222°
2026-05-05 20:10 41.26748 -8.19988 9955 ft 282 kts 222°
2026-05-05 20:10 41.25231 -8.21618 9693 ft 279 kts 223°
2026-05-05 20:11 41.23728 -8.23232 9430 ft 277 kts 222°
2026-05-05 20:11 41.22232 -8.24838 9157 ft 276 kts 222°
2026-05-05 20:11 41.20746 -8.26433 8891 ft 274 kts 222°
2026-05-05 20:11 41.19264 -8.28022 8634 ft 273 kts 222°
2026-05-05 20:12 41.17789 -8.29601 8364 ft 272 kts 223°
2026-05-05 20:12 41.16318 -8.31176 8099 ft 271 kts 222°
2026-05-05 20:12 41.14854 -8.32741 7834 ft 271 kts 222°
2026-05-05 20:12 41.13392 -8.34304 7566 ft 269 kts 222°
2026-05-05 20:13 41.11936 -8.35860 7303 ft 268 kts 222°
2026-05-05 20:13 41.10484 -8.37411 7050 ft 268 kts 222°
2026-05-05 20:13 41.09035 -8.38957 6781 ft 267 kts 222°
2026-05-05 20:13 41.07591 -8.40498 6508 ft 266 kts 222°
2026-05-05 20:14 41.06152 -8.42032 6250 ft 264 kts 221°
2026-05-05 20:14 41.04738 -8.43538 5987 ft 263 kts 222°
2026-05-05 20:14 41.03315 -8.45050 5723 ft 262 kts 223°
2026-05-05 20:14 41.01899 -8.46556 5488 ft 260 kts 222°
2026-05-05 20:15 41.00606 -8.48173 5321 ft 250 kts 242°
2026-05-05 20:15 40.99996 -8.50233 5243 ft 235 kts 261°
2026-05-05 20:15 40.99675 -8.52310 5138 ft 225 kts 263°
2026-05-05 20:15 40.99393 -8.54291 5052 ft 213 kts 264°
2026-05-05 20:16 40.99122 -8.56173 4956 ft 203 kts 264°
2026-05-05 20:16 40.98857 -8.57997 4884 ft 201 kts 264°
2026-05-05 20:16 40.98846 -8.59801 4703 ft 194 kts 295°
2026-05-05 20:16 40.99626 -8.61165 4553 ft 187 kts 326°
2026-05-05 20:17 41.00817 -8.61826 4350 ft 188 kts 348°
2026-05-05 20:17 41.02097 -8.62164 4136 ft 187 kts 348°
2026-05-05 20:17 41.03356 -8.62501 3904 ft 183 kts 348°
2026-05-05 20:17 41.04602 -8.62834 3695 ft 182 kts 348°
2026-05-05 20:18 41.05844 -8.63167 3519 ft 183 kts 348°
2026-05-05 20:18 41.07095 -8.63495 3310 ft 184 kts 349°
2026-05-05 20:18 41.08352 -8.63822 3105 ft 183 kts 348°
2026-05-05 20:18 41.09592 -8.64145 2864 ft 181 kts 348°
2026-05-05 20:19 41.10812 -8.64463 2647 ft 177 kts 348°
2026-05-05 20:19 41.12007 -8.64775 2435 ft 173 kts 348°
2026-05-05 20:19 41.13186 -8.65083 2191 ft 172 kts 348°
2026-05-05 20:19 41.14345 -8.65386 1960 ft 169 kts 347°
2026-05-05 20:20 41.15486 -8.65684 1722 ft 165 kts 348°
2026-05-05 20:20 41.16598 -8.65975 1526 ft 160 kts 348°
2026-05-05 20:20 41.17671 -8.66255 1318 ft 151 kts 348°
2026-05-05 20:20 41.18658 -8.66513 1152 ft 143 kts 348°
2026-05-05 20:21 41.19629 -8.66767 955 ft 140 kts 347°
2026-05-05 20:21 41.20571 -8.67021 816 ft 137 kts 348°
2026-05-05 20:21 41.21520 -8.67265 645 ft 142 kts 348°
2026-05-05 20:21 41.22500 -8.67524 434 ft 145 kts 349°
2026-05-05 20:22 41.23156 -8.67694 313 ft 145 kts 348°
2026-05-05 20:22 41.24112 -8.67942 214 ft 124 kts 348°
2026-05-05 20:22 41.24720 -8.68102 200 ft 56 kts 349°
2026-05-05 20:22 41.25007 -8.68170 188 ft 37 kts 356°
2026-05-05 20:23 41.25238 -8.68121 180 ft 22 kts 19°
2026-05-05 20:23 41.25251 -8.68009 182 ft 17 kts 168°
2026-05-05 20:23 41.25130 -8.67977 187 ft 20 kts 168°
2026-05-05 20:23 41.24982 -8.67938 197 ft 22 kts 169°
2026-05-05 20:24 41.24841 -8.67879 211 ft 21 kts 149°